Tracking 19800 objects as of 24-Jul-2019
HD Live streaming from Space Station
objects crossing your sky now

FENGYUN 1C DEB

Track FENGYUN 1C DEB now!
10-day predictions


NORAD ID: 33731
Int'l Code: 1999-025DHU
Perigee: 844.6 km
Apogee: 1,049.3 km
Inclination: 99.4 °
Period: 103.8 minutes
Semi major axis: 7317 km
RCS: 0.0076 m2 (small)
Launch date: May 10, 1999
Source: People's Republic of China (PRC)
Launch site: Taiyaun Space Center, China (TSC)

Note: This is SATELLITE DEBRIS
aabbcc
Your satellite tracking list
Your tracking list is empty




NASA's NSSDC Master Catalog

Two Line Element Set (TLE):
1 33731U 99025DHU 19202.37389285 +.00000303 +00000-0 +27664-3 0  9995
2 33731 099.3507 164.0324 0139870 196.4441 318.6578 13.86821155580000
Source of the keplerian elements: AFSPC